Location: Hradec Kralove
(50.2170°N, 15.8330°E)
Time: 07:49:02
(UTC+01:00)

Envisat - Visible Passes

Search period start: 06 December 2022 00:00
Search period end: 16 December 2022 00:00
Orbit: 763 x 765 km, 98.2° (Epoch: 05 December)

Date Brightness Start Highest point End Pass type
(mag) Time Alt. Az. Time Alt. Az. Time Alt. Az.
06 Dec 5.4 03:29:23 10° NNE 03:30:37 16° NE 03:30:37 16° NE visible
06 Dec 4.2 05:08:17 10° N 05:10:48 27° NNW 05:10:48 27° NNW visible
06 Dec 5.7 16:29:01 10° SW 16:32:41 20° W 16:36:25 10° NW visible
07 Dec 4.5 04:31:04 10° NNE 04:33:13 26° N 04:33:13 26° N visible
07 Dec 4.7 06:11:32 10° NNW 06:13:24 15° NW 06:13:24 15° NW visible
08 Dec 5.1 03:54:09 10° NNE 03:55:39 19° NNE 03:55:39 19° NNE visible
08 Dec 4.4 05:33:38 10° N 05:35:50 21° NNW 05:35:50 21° NNW visible
08 Dec 6.0 16:56:05 10° WSW 16:58:05 12° W 17:00:06 10° WNW visible
09 Dec 5.8 03:17:38 10° NE 03:18:06 12° NE 03:18:06 12° NE visible
09 Dec 4.5 04:56:13 10° N 04:58:16 24° N 04:58:16 24° N visible
10 Dec 4.9 04:19:06 10° NNE 04:20:43 21° NNE 04:20:43 21° NNE visible
10 Dec 4.7 05:59:12 10° NNW 06:00:53 16° NNW 06:00:53 16° NNW visible
11 Dec 5.5 03:42:17 10° NNE 03:43:10 15° NNE 03:43:10 15° NNE visible
11 Dec 4.6 05:21:30 10° N 05:23:20 20° NNW 05:23:20 20° NNW visible
11 Dec 5.8 16:42:59 10° WSW 16:45:57 15° W 16:48:56 10° NW visible
12 Dec 4.8 04:44:11 10° N 04:45:48 21° N 04:45:48 21° N visible
12 Dec 4.9 06:25:16 10° NNW 06:25:59 11° NW 06:25:59 11° NW visible
13 Dec 5.2 04:07:09 10° NNE 04:08:16 17° NNE 04:08:16 17° NNE visible
13 Dec 4.7 05:46:58 10° N 05:48:27 16° NNW 05:48:27 16° NNW visible
14 Dec 5.8 03:30:28 10° NNE 03:30:44 11° NNE 03:30:44 11° NNE visible
14 Dec 4.7 05:09:24 10° N 05:10:55 19° N 05:10:55 19° N visible
14 Dec 5.7 16:30:14 10° SW 16:33:50 19° W 16:37:27 10° NW visible
15 Dec 5.0 04:32:11 10° NNE 04:33:24 18° N 04:33:24 18° N visible
15 Dec 4.9 06:12:43 10° NNW 06:13:34 12° NNW 06:13:34 12° NNW visible
